Regional Weather Roundup
Issued by NWS

Home | Current Version | Previous Version | Graphics & Text | Print | Product List | Glossary On
Versions: 1 2 3 4 5 6 7 8 9 10 11 12 13 14 15 16 17 18 19 20 21 22 23 24 25 26 27 28 29 30 31 32 33 34 35 36 37 38 39 40 41 42 43 44 45 46 47 48 49 50
000
ASUS43 KMPX 230710
RWRMN
WEATHER ROUNDUP FOR MINNESOTA
NATIONAL WEATHER SERVICE TWIN CITIES/CHANHASSEN MN
200 AM CDT FRI JUN 23 2017


NOTE: "FAIR" INDICATES FEW OR NO CLOUDS BELOW 12,000 FEET WITH NO
SIGNIFICANT WEATHER AND/OR OBSTRUCTIONS TO VISIBILITY. N/A MEANS
CURRENT SKY AND/OR WEATHER CONDITIONS ARE NOT AVAILABLE.

MNZ060>063-068>070-230800-
   Twin Cities Metro

CITY           SKY/WX    TMP DP  RH WIND       PRES   REMARKS
TWIN CITIES    CLEAR     61  57  87 CALM      29.74F
ST PAUL        CLEAR     60  60 100 CALM      29.73F
CRYSTAL        CLEAR     59  52  77 W6        29.71F
BLAINE         CLEAR     57  55  94 CALM      29.73F
LAKEVILLE      CLEAR     57  57 100 SW3       29.75S
EDEN PRAIRIE   CLEAR     60  56  86 SW5       29.73F
SOUTH ST PAUL  CLEAR     62  59  91 W3        29.73F
LAKE ELMO      FAIR      59  55  88 CALM      29.74S
$$
MNZ001>005-007-008-013>017-022>024-027-028-230800-
   Northwest Minnesota

CITY           SKY/WX    TMP DP  RH WIND       PRES   REMARKS
BEMIDJI        CLEAR     55  43  64 W9        29.68S
HALLOCK        MOCLDY    55  52  88 W8        29.65S
ROSEAU           N/A     57  50  77 W9G16     29.62S
WARROAD        PTCLDY    55  50  82 W10       29.62R
THIEF RVR FALL MOCLDY    56  47  71 W12       29.69S
CROOKSTON      CLEAR     54  48  82 W9        29.70F
FOSSTON        CLEAR     54  45  71 W10G17    29.71S
DETROIT LAKES  CLEAR     59  45  58 NW16G23   29.75R
MOORHEAD       PTCLDY    59  45  58 W13       29.76S
PARK RAPIDS    CLEAR     56  40  55 W10       29.71S
MAHNOMEN       FAIR      53  46  77 W12       29.72S
$$
MNZ006-009>011-018-025>026-230800-
   North Central Minnesota

CITY           SKY/WX    TMP DP  RH WIND       PRES   REMARKS
BAUDETTE       CLOUDY    56  47  71 W10       29.60F
FLAG ISLAND    MOCLDY    57  48  72 W13       29.57S
INTL FALLS     PTCLDY    54  44  69 W6        29.60S
WASKISH        CLEAR     59  48  67 W17G25    29.64S
BIG FORK       CLEAR     57  43  58 SW5       29.64S
LONGVILLE      CLEAR     57  43  58 W6        29.68F
GRAND RAPIDS   PTCLDY    60  43  53 W5        29.68S
CRANE LAKE     CLOUDY    59  41  51 SW6       29.62S
ORR            CLOUDY    57  39  51 W6        29.60S
COOK           CLOUDY    57  43  58 SW5       29.63F
WALKER         FAIR      58  42  55 W14G20    29.69S
$$
MNZ012-019>021-037-230800-
   Northeast Minnesota

CITY           SKY/WX    TMP DP  RH WIND       PRES   REMARKS
DULUTH         PTCLDY    53  52  96 W8        29.65F
ELY            CLOUDY    55  45  67 W6        29.62S
HIBBING        CLOUDY    54  45  71 SW5       29.64F
EVELETH        MOCLDY    55  43  63 W8        29.65F
DULUTH HARBOR  CLEAR     59  55  88 SW9       29.65F
TWO HARBORS    CLEAR     59  52  77 W6        29.62F
SILVER BAY     CLEAR     48  48 100 CALM      29.62F FOG
GRAND MARAIS     N/A     47  44  90 W5        29.60F
G MARAIS ARPRT CLEAR     52  43  71 CALM      29.63F
$$
MNZ029>031-032-039>041-046>048-054>057-064-230800-
   West Central Minnesota

CITY           SKY/WX    TMP DP  RH WIND       PRES   REMARKS
FERGUS FALLS   PTCLDY    57  45  62 NW9       29.74R
WHEATON        PTCLDY    61  43  51 W12G20    29.80R
MORRIS         CLEAR     61  48  63 W9        29.76R
ALEXANDRIA     CLEAR     57  47  69 W9        29.76S
ELBOW LAKE     FAIR      57  46  65 NW8       29.76S
WADENA         CLEAR     54  45  71 W5        29.72S
GLENWOOD       CLEAR     55  54  94 W8        29.76S
APPLETON       CLEAR     59  55  88 SW7       29.77S
BENSON         CLEAR     57  55  94 W8        29.78S
ORTONVILLE     CLEAR     57  48  72 NW3       29.78S
MADISON        CLEAR     63  57  82 W7        29.78F
WILLMAR        FAIR      61  55  82 W7        29.77F
$$
MNZ033>034-036-042>043-049>051-058-059-230800-
   Central Minnesota

CITY           SKY/WX    TMP DP  RH WIND       PRES   REMARKS
ST CLOUD       CLEAR     57  54  89 W6        29.73F
SAUK CENTRE    FAIR      57  52  82 SW6       29.75S
PAYNESVILLE    CLEAR     54  54 100 W5        29.76F
AITKIN         CLEAR     55  48  76 SW3       29.67F
PINE RIVER     PTCLDY    55  45  67 SW3       29.74S
BRAINERD       CLEAR     57  50  77 SW9       29.71S
STAPLES        CLEAR     57  41  54 W7        29.72S
LONG PRAIRIE   FAIR      55  50  82 SW6       29.75S
LITTLE FALLS   CLEAR     55  50  82 CALM      29.73S
LITCHFIELD     CLEAR     64  55  72 W3        29.76F
BUFFALO        CLEAR     61  53  75 W3        29.75F
MAPLE LAKE     CLEAR     61  55  79 CALM      29.75S
HUTCHINSON     CLEAR     58  54  88 SW5       29.77F
$$
MNZ037-044-045-052-053-230800-
   East Central Minnesota

CITY           SKY/WX    TMP DP  RH WIND       PRES   REMARKS
PRINCETON      CLEAR     57  54  88 CALM      29.72F
MORA           CLEAR     57  52  82 W5        29.72F
CAMBRIDGE      CLEAR     61  50  67 SW3       29.70F
RUSH CITY      MOCLDY    57  54  88 SW3       29.71F
MOOSE LAKE     PTCLDY    54  52  94 CALM      29.67S
HINCKLEY       FAIR      54  52  94 SW5       29.69F
CLOQUET        CLEAR     59  52  77 SW7       29.67F
MCGREGOR       CLEAR     55  52  88 SW5       29.68F
$$
MNZ071>073-080-081-089-090-097-098-230800-
   Southwest Minnesota

CITY           SKY/WX    TMP DP  RH WIND       PRES   REMARKS
MONTEVIDEO     CLEAR     61  55  82 NW3       29.78S
GRANITE FALLS  CLEAR     61  57  86 SW9       29.80F
CANBY          CLEAR     63  56  79 SW9       29.82S
MARSHALL       CLEAR     62  55  77 W8        29.81R
REDWOOD FALLS  CLEAR     61  53  75 W10       29.77F
OLIVIA         CLEAR     59  54  82 W8        29.77S
PIPESTONE      CLEAR     57  52  82 W3        29.85R
WINDOM         CLEAR     55  52  88 W5        29.82R
WORTHINGTON    CLEAR     56  49  77 W10       29.84S
JACKSON        CLEAR     55  52  88 CALM      29.83S
TRACY          CLEAR     63  55  74 W8        29.82R
SLAYTON        CLEAR     59  48  68 W9        29.85R
$$
MNZ065>067-074>077-082>085-091>093-230800-
   South Central Minnesota

CITY           SKY/WX    TMP DP  RH WIND       PRES   REMARKS
MANKATO        CLEAR     59  56  89 SW5       29.79R
NEW ULM        CLEAR     55  52  88 W5        29.78S
ST JAMES       CLEAR     57  54  88 SW6       29.80R
FAIRMONT       CLEAR     58  55  90 W3        29.81R
GLENCOE        CLEAR     60  57  89 W3        29.75F
FARIBAULT      PTCLDY    55  55 100 CALM      29.77S
OWATONNA       CLEAR     59  57  94 SW3       29.78R
WASECA         CLEAR     55  55 100 W5        29.79S
ALBERT LEA     CLEAR     63  59  88 CALM      29.77S
$$
MNZ078>079-086>088-094>096-230800-
   Southeast Minnesota

CITY           SKY/WX    TMP DP  RH WIND       PRES   REMARKS
ROCHESTER      CLOUDY    62  62 100 NW9       29.76F FOG
RED WING       FOG       63  61  94 CALM      29.73S VSB<1/4
STANTON        CLEAR     59  57  93 S3        29.75S
DODGE CENTER   CLEAR     61  57  88 W6        29.76F
WINONA         CLOUDY    66  64  94 CALM      29.73S
AUSTIN         CLOUDY    63  61  94 NW3       29.76S FOG
PRESTON        CLOUDY    63  61  93 N5        29.75S FOG
$$
ABBREVIATIONS USED IN REMARKS
   TC - TEMPERATURES IN CELSIUS
  WCI - WIND CHILL INDEX
   HX - HEAT INDEX
  VSB - VISIBILITY
$$




USA.gov is the U.S. government's official web portal to all federal, state and local government web resources and services.